Regional Weather Roundup
Issued by NWS

Home | Current Version | Previous Version | Graphics & Text | Print | Product List | Glossary On
Versions: 1 2 3 4 5 6 7 8 9 10 11 12 13 14 15 16 17 18 19 20 21 22 23 24 25 26 27 28 29 30 31 32 33 34 35 36 37 38 39 40 41 42 43 44 45 46 47 48 49 50
000
ASUS45 KBOU 220507
RWRCO

WEATHER ROUNDUP FOR COLORADO
NATIONAL WEATHER SERVICE DENVER/BOULDER CO
1100 PM MDT THU AUG 21 2014

NOTE: "FAIR" INDICATES FEW OR NO CLOUDS BELOW 12000 FEET WITH NO
SIGNIFICANT WEATHER AND/OR OBSTRUCTIONS TO VISIBILITY.

COZ001>005-013-030-031-220600-
...NORTHWEST COLORADO...

CITY           SKY/WX    TMP DP  RH WIND       PRES   REMARKS
CRAIG          MOCLDY    54  48  80 CALM      30.23F
HAYDEN         MOCLDY    55  45  67 N3        30.25F
MEEKER         MOCLDY    58  47  66 CALM      30.23S
MOUNT WERNER   NOT AVBL
STEAMBOAT SPGS MOCLDY    55  46  72 S5        30.26F
WALDEN         CLOUDY    50  41  71 CALM      30.34F
$$

COZ006>008-011-220600-
...WEST CENTRAL VALLEYS...

CITY           SKY/WX    TMP DP  RH WIND       PRES   REMARKS
GRAND JUNCTION MOCLDY    64  50  60 E6        30.09F
MONTROSE       CLOUDY    68  48  48 SE6       30.18F
EAGLE          CLOUDY    63  46  55 CALM      30.25S
RIFLE          MOCLDY    66  48  52 SE6       30.15F
DELTA          CLOUDY    71  47  43 N5        30.13S
NUCLA          CLOUDY    68  41  37 E6        30.21S
$$

COZ017>023-064>068-220600-
...SOUTHWEST COLORADO...

CITY           SKY/WX    TMP DP  RH WIND       PRES   REMARKS
DURANGO        CLOUDY    69  40  34 NW13      30.20F
CORTEZ         MOCLDY    66  43  43 E3        30.19S
PAGOSA SPRINGS CLOUDY    62  43  48 CALM      30.28F
TELLURIDE      CLOUDY    55  45  67 SE5       30.39F
WOLF CREEK PAS NOT AVBL
$$

COZ009-010-012-014-032>034-037-058>063-220600-
...CENTRAL COLORADO...

CITY           SKY/WX    TMP DP  RH WIND       PRES   REMARKS
ASPEN          CLOUDY    58  42  55 SW8       30.30F
BUENA VISTA    CLOUDY    63  38  40 NW9       30.31F
COPPER MTN     CLOUDY    50  34  53 CALM      30.60F
BERTHOUD PASS  DRIZZLE   37  36  93 E8        30.66S
COTTONWOOD PAS CLOUDY    61  32  33 W3        30.45F
GUNNISON       CLOUDY    59  41  51 CALM      30.33S
KREMMLING      CLOUDY    55  43  62 CALM      30.31S
LEADVILLE      CLOUDY    50  39  66 E3        30.44F
MONARCH PASS   CLOUDY    48  32  53 E8        30.69F
SALIDA         CLOUDY    69  37  30 CALM      30.34F
SUNLIGHT       CLOUDY    52  39  62 CALM      30.52F
WILKERSON PASS NOT AVBL
$$

COZ069>075-220600-
...SAN LUIS VALLEY/SANGRE DE CRISTO MOUNTAINS...

CITY           SKY/WX    TMP DP  RH WIND       PRES   REMARKS
ALAMOSA        MOCLDY    62  40  44 CALM      30.24F
LA VETA PASS   NOT AVBL
SAGUACHE       CLOUDY    63  37  39 NW17      30.29S
$$

COZ035-036-038>040-220600-
...NORTHERN COLORADO FRONT RANGE...

CITY           SKY/WX    TMP DP  RH WIND       PRES   REMARKS
DENVER INTL AP CLOUDY    64  57  78 SE6       30.16R
DMNS CITY PARK   N/A     67  56  66 E2        30.15S
AURORA         CLOUDY    64  54  71 SE5       30.19S
FRONT RANGE AP NOT AVBL
ERIE MUNI ARPT CLOUDY    68  50  53 CALM      30.15S
BOULDER MUN AP LGT RAIN  66  54  63 NW6       30.16R
CENTENNIAL     CLOUDY    67  50  54 CALM      30.19S
BROOMFIELD     NOT AVBL
FORT COLLINS   CLOUDY    64  55  72 S3        30.15F
LONGMONT       CLOUDY    67  57  70 CALM      30.17R
$$

COZ041-046-047-076>085-087-088-220600-
...PIKES PEAK/PALMER DIVIDE AND SOUTHERN FOOTHILLS...

CITY           SKY/WX    TMP DP  RH WIND       PRES   REMARKS
COLO. SPRINGS  MOCLDY    69  50  50 N14       30.20S
A. F. ACADEMY  MOCLDY    62  49  63 N6        30.23S
ELLICOTT       MOCLDY    67  51  56 N10       30.18R
FALCON         MOCLDY    65  49  57 N9        30.26S
FORT CARSON    NOT AVBL
LIMON          PTCLDY    63  53  70 N10       30.15S
MONUMENT HILL  CLOUDY    57  48  72 CALM      30.26F
TRINIDAD       PTCLDY    69  51  52 CALM      30.12F
$$

COZ042>045-048>051-090-091-220600-
...NORTHEAST COLORADO...

CITY           SKY/WX    TMP DP  RH WIND       PRES   REMARKS
GREELEY ARPT   CLOUDY    66  54  63 NW5       30.13F
AKRON          CLOUDY    64  59  83 N5        30.12F
BURLINGTON     MOCLDY    69  49  48 E6        30.04F
WRAY             N/A     70  53  54 CALM      30.01S
STERLING       CLOUDY    73  59  60 S6        30.07R
HOLYOKE        NOT AVBL
FORT MORGAN    CLOUDY    66  56  71 NW12      30.11F
$$

COZ086-089-092>099-220600-
...SOUTHEAST COLORADO...

CITY           SKY/WX    TMP DP  RH WIND       PRES   REMARKS
PUEBLO         PTCLDY    75  52  44 E7        30.04S
LA JUNTA       MOCLDY    79  49  34 SE6       30.00F
LAMAR          MOCLDY    79  56  45 S8        29.99R
SPRINGFIELD      N/A     72  56  57 SW3       30.04S
$$



USA.gov is the U.S. government's official web portal to all federal, state and local government web resources and services.